Regional Weather Roundup
Issued by NWS Newport/Morehead, NC

Current Version | Previous Version | Text Only | Print | Product List | Glossary On
Versions: 1 2 3 4 5 6 7 8 9 10 11 12 13 14 15 16 17 18 19 20 21 22 23 24 25 26 27 28 29 30 31 32 33 34 35 36 37 38 39 40 41 42 43 44 45 46 47 48 49 50
000
ASUS42 KMHX 262313
RWRMHX
WEATHER ROUNDUP FOR EASTERN NORTH CAROLINA
NATIONAL WEATHER SERVICE NEWPORT/MOREHEAD CITY NC
600 PM EST SUN FEB 26 2017

NOTE: "FAIR" INDICATES FEW OR NO CLOUDS BELOW 12,000 FEET
WITH NO SIGNIFICANT WEATHER AND/OR OBSTRUCTIONS TO VISIBILITY

NCZ015>017-031-032-045>047-102-103-270000-
NORTH COAST

CITY           SKY/WX    TMP DP  RH WIND       PRES   REMARKS
EDENTON        CLEAR     54  24  30 W3        30.22R
ELIZABETH CITY CLEAR     47  34  60 E8        30.22R
KITTY HAWK     NOT AVBL
MANTEO         CLEAR     45  34  66 SE7       30.23R

$$

NCZ045>047-081-094-103-104-270000-
CENTRAL COAST

CITY           SKY/WX    TMP DP  RH WIND       PRES   REMARKS
FRISCO         CLEAR     49  34  56 CALM      30.22R

$$

NCZ095-097-098-100-101-270000-
SOUTHERN COAST

CITY           SKY/WX    TMP DP  RH WIND       PRES   REMARKS
BEAUFORT       PTCLDY    55  25  31 NW7       30.21R
CEDAR ISLAND   NOT AVBL
JACKSONVILLE   CLEAR     54  22  28 W5        30.22R
PINEY ISLAND   CLEAR    N/A N/A N/A SE6       30.21R
WILMINGTON     CLEAR     55  21  26 W7        30.23R


$$

NCZ011>013-027>030-043-044-078>080-089-090>093-098-270000-
COASTAL PLAIN

CITY           SKY/WX    TMP DP  RH WIND       PRES   REMARKS
AHOSKIE          N/A     49  21  33 NW3       30.23R
CLINTON        CLEAR     56  23  27 CALM      30.22R
ELIZABETHTOWN  CLEAR     56  24  28 W3        30.22R
GOLDSBORO      NOT AVBL
GREENVILLE     CLEAR     54  19  26 NW3       30.23R
HAVELOCK       CLEAR     55  20  25 W8        30.22R
KENANSVILLE    CLEAR     54  23  30 CALM      30.22R
KINSTON        CLEAR     54  18  24 CALM      30.23R
NEW BERN       CLEAR     53  23  31 W3        30.23R
RICHLANDS      CLEAR     53  24  32 CALM      30.23R
ROCKY MOUNT    CLEAR     52  19  27 W3        30.22R
WASHINGTON     CLEAR     53  20  27 NW3       30.22R
WHITEVILLE     CLEAR     56  23  28 CALM      30.22R

$$

AMZ130-135-150-152-154-156-158-170-250-252-270-ANZ085-086-088-633-658-670-270000-
MARINE OBSERVATIONS

STATION/POSITION TIME  TEMP    WIND        PRES    WAVE   SWELL
                       AIR SEA DIR/SP/G            HT/PER HT/PER
                 (UTC) (F)     (DEG/KT/KT) (MB)    (FT/S) (FT/S)
CHESAPEAKE LIGHT NOT AVBL
64 E VA BEACH    2250   44 51  360/  4/  8 1023.4    4/10   5/10
DUCK             2248   45 49  100/  9/ 10 1022.9
2 E DUCK         2300      50                N/A     4/10   2/11
OREGON INLET     2248          100/  5/  7 1023.3
13E OREGON INLT  NOT AVBL
HATTERAS CG      2248   52 61  230/  3/  5 1022.8
DIAMOND BUOY     2250   54 72  290/  4/  8 1023.4    4/ 9   3/ 9
CAPE LOOKOUT     2300   54     230/  6/  8 1023.0
BEAUFORT LAB     2248   56 62  250/  5/  9 1022.1
30 SE NEW RVR IN 2208   55     250/  6/  8 1023.0
30 SE NEW RVR IN 2243      65                N/A     3/ 9   2/11
27 SE WRIGHTSVLE 2208   55 62  220/  6/ 10 1022.0
5 SE WRIGHTSVLE  2208   55 59  190/ 10/ 16 1022.5
225 S CAPE HAT   2250   67 71  350/ 10/ 14 1022.3    6/ 7   5/ 7
41 SE CHARLESTON 2250   59 69  150/  4/  8 1023.3    3/ 9   3/ 9

$$



USA.gov is the U.S. government's official web portal to all federal, state and local government web resources and services.